Location: NJAA Observatory
(40.6819°N, 74.8979°W)
Time: 05:14:09
(UTC-04:00)

Cosmos 2263 Rocket - Visible Passes

Search period start: 06 July 2015 00:00
Search period end: 16 July 2015 00:00
Orbit: 825 x 848 km, 71.0° (Epoch: 05 July)

Date Brightness Start Highest point End Pass type
(mag) Time Alt. Az. Time Alt. Az. Time Alt. Az.
06 Jul 2.2 03:37:09 26° SSW 03:40:21 76° ESE 03:45:57 10° NNE visible
07 Jul 2.3 03:21:04 31° S 03:23:42 70° ESE 03:29:16 10° NNE visible
08 Jul 2.3 03:04:57 37° S 03:07:03 64° ESE 03:12:35 10° NNE visible
08 Jul 3.9 04:47:28 10° W 04:51:33 20° NW 04:55:31 10° N visible
09 Jul 2.4 02:48:47 42° SSE 02:50:24 58° ESE 02:55:54 10° NNE visible
09 Jul 3.8 04:30:34 10° WSW 04:34:49 21° NW 04:38:58 10° N visible
10 Jul 2.5 02:32:35 45° SSE 02:33:46 53° ESE 02:39:12 10° NNE visible
10 Jul 3.7 04:14:17 12° W 04:18:06 23° NW 04:22:25 10° N visible
11 Jul 2.6 02:16:22 45° SE 02:17:07 49° ESE 02:22:30 10° NE visible
11 Jul 3.6 03:58:04 15° W 04:01:22 25° NW 04:05:51 10° N visible
12 Jul 2.7 02:00:06 44° ESE 02:00:29 45° ESE 02:05:47 10° NE visible
12 Jul 3.6 03:41:48 18° W 03:44:39 27° NW 03:49:17 10° N visible
13 Jul 2.8 01:43:49 41° ESE 01:43:50 41° ESE 01:49:04 10° NE visible
13 Jul 3.5 03:25:30 21° W 03:27:56 29° NW 03:32:42 10° N visible
14 Jul 3.0 01:27:29 37° E 01:27:29 37° E 01:32:20 10° NE visible
14 Jul 3.4 03:09:11 24° W 03:11:13 31° NW 03:16:07 10° N visible
15 Jul 3.2 01:11:08 34° E 01:11:08 34° E 01:15:35 10° NE visible
15 Jul 3.3 02:52:49 28° W 02:54:31 33° WNW 02:59:31 10° N visible
